Pensacola, FL

5:32 AM CDT on April 22, 2018 (GMT -0500)
Pensacola Regional

Weather History for KPNS - September, 2014

Change the Weather History Date:

Thursday, September 18, 2014

  Actual Average Record
Temperature  
Mean Temperature 79 °F 78 °F  
Max Temperature 86 °F 86 °F 96 °F (2005)
Min Temperature 71 °F 70 °F 53 °F (1981)
Cooling Degree Days 14 13  
Month to date cooling degree days 285 266  
Year to date cooling degree days 2241 2233  
Growing Degree Days 28 (Base 50)    
Moisture  
Dew Point 72 °F    
Average Humidity 81    
Maximum Humidity 100    
Minimum Humidity 61    
Precipitation  
Precipitation 0.00 in 0.19 in 3.97 in (1914)
Month to date precipitation 4.92 3.60  
Year to date precipitation 73.67 48.37  
Sea Level Pressure  
Sea Level Pressure 29.92 in    
Wind  
Wind Speed 5 mph (NE)    
Max Wind Speed 12 mph    
Max Gust Speed 14 mph    
Visibility 10 miles    
Events Thunderstorm    
T = Trace of Precipitation, MM = Missing Value Source: NWS Daily Summary

Daily Weather History Graph

Daily Weather History Graph

Search for Another Location

Airport or City:

Astronomy

Sep. 18, 2014 Rise Set
Actual Time 6:34 AM CDT 6:50 PM CDT
Civil Twilight 6:10 AM CDT 7:14 PM CDT
Nautical Twilight 5:42 AM CDT 7:42 PM CDT
Astronomical Twilight 5:14 AM CDT 8:10 PM CDT
Moon 1:42 AM CDT (9/18) 3:26 PM CDT (9/18)
Length of Visible Light 13h 03m
Length of Day
12h 15m
Waning Crescent, 26% of the Moon is Illuminated
Sep 18
Waning Crescent
Sep 24
New
Oct 1
First Quarter
Oct 8
Full
Oct 15
Last Quarter

Hourly Weather History & Observations

Time (CDT) Temp. Heat Index Dew Point Humidity Pressure Visibility Wind Dir Wind Speed Gust Speed Precip Events Conditions
12:53 AM 73.0 °F - 72.0 °F 96% 29.90 in 10.0 mi Calm Calm - N/A   Clear
1:53 AM 73.9 °F - 72.0 °F 93% 29.90 in 10.0 mi WNW 3.5 mph - N/A   Clear
2:53 AM 73.0 °F - 72.0 °F 96% 29.90 in 10.0 mi Calm Calm - N/A   Clear
3:53 AM 73.4 °F - 71.6 °F 94% 29.89 in 10.0 mi NNW 4.6 mph - N/A   Clear
4:53 AM 73.0 °F - 72.0 °F 96% 29.90 in 10.0 mi North 4.6 mph - N/A   Clear
5:53 AM 72.0 °F - 72.0 °F 100% 29.91 in 10.0 mi NNW 3.5 mph - N/A   Clear
6:53 AM 71.1 °F - 71.1 °F 100% 29.91 in 10.0 mi North 4.6 mph - N/A   Clear
7:53 AM 75.0 °F - 72.0 °F 90% 29.93 in 10.0 mi NE 3.5 mph - N/A   Clear
8:53 AM 79.0 °F - 70.0 °F 74% 29.94 in 10.0 mi Variable 3.5 mph - N/A   Partly Cloudy
9:53 AM 81.0 °F 84.4 °F 70.0 °F 69% 29.96 in 10.0 mi East 6.9 mph - N/A   Clear
10:53 AM 82.0 °F 86.3 °F 71.1 °F 69% 29.96 in 10.0 mi ESE 4.6 mph - N/A   Clear
11:53 AM 84.0 °F 88.4 °F 70.0 °F 63% 29.95 in 10.0 mi ESE 6.9 mph - N/A   Partly Cloudy
12:53 PM 84.9 °F 90.1 °F 71.1 °F 63% 29.94 in 10.0 mi SSE 6.9 mph - N/A   Clear
1:53 PM 84.0 °F 89.6 °F 72.0 °F 67% 29.91 in 10.0 mi SE 10.4 mph - N/A   Scattered Clouds
2:53 PM 82.0 °F 86.3 °F 71.1 °F 69% 29.91 in 10.0 mi SSE 10.4 mph - N/A Thunderstorm Clear
3:12 PM 81.0 °F 85.2 °F 72.0 °F 74% 29.90 in 10.0 mi South 10.4 mph - N/A   Clear
3:53 PM 80.1 °F 83.8 °F 72.0 °F 76% 29.90 in 10.0 mi SSE 8.1 mph - N/A   Clear
4:53 PM 80.1 °F 83.8 °F 72.0 °F 76% 29.88 in 10.0 mi South 3.5 mph - N/A   Clear
5:53 PM 79.0 °F - 73.9 °F 84% 29.90 in 10.0 mi NW 4.6 mph - N/A   Clear
6:53 PM 78.1 °F - 73.0 °F 84% 29.90 in 10.0 mi Calm Calm - N/A   Clear
7:53 PM 77.0 °F - 73.9 °F 90% 29.91 in 10.0 mi Calm Calm - N/A   Clear
8:53 PM 75.9 °F - 73.9 °F 94% 29.93 in 10.0 mi NNE 4.6 mph - N/A   Clear
9:53 PM 75.9 °F - 73.0 °F 91% 29.94 in 10.0 mi North 4.6 mph - N/A   Clear
10:53 PM 75.0 °F - 72.0 °F 90% 29.94 in 10.0 mi North 4.6 mph - N/A   Partly Cloudy
11:53 PM 75.0 °F - 72.0 °F 90% 29.95 in 10.0 mi NW 4.6 mph - N/A   Clear